Home   Weather   Grieskirchen   Past weeks

Flag for Austria Past Weather in Grieskirchen, Upper Austria, Austria — Yesterday and Last 2 Weeks

Now
37 °F

Partly cloudy.


Feels Like: 30 °F
Forecast: 36 / 53 °F
Wind: 10 mph from West

Location: Linz / Hoersching-Flughafen

Current Time: Apr 28, 2017 at 10:28:52 pm

Latest Report: Apr 28, 2017 at 9:50 pm


Visibility: 4 mi

Pressure: 30.01 "Hg

Humidity: 93%

Dew Point: 36 °F

Location of GrieskirchenLocation

Past Weather in Grieskirchen — Graph

°F

Grieskirchen Temperature Yesterday

Maximum temperature yesterday: 43 °F (at 11:50 am)
Minimum temperature yesterday: 39 °F (at 4:20 am)
Average temperature yesterday: 41 °F

High & Low Weather Summary for the Past Weeks

 TemperatureHumidityPressure
High64 °F (Apr 25, 2:50 pm)100% (Apr 18, 8:50 pm)30.51 "Hg (Apr 18, 8:50 pm)
Low28 °F (Apr 20, 5:20 am)39% (Apr 24, 3:50 pm)29.68 "Hg (Apr 26, 2:50 am)
Average44 °F74%30.06 "Hg
* Reported Apr 13 9:20 pm — Apr 28 9:20 pm, Grieskirchen, Weather by CustomWeather, © 2017

Note: Actual official high and low records may vary slightly from our data, if they occured in-between our weather recording intervals... More about our weather records

Advertising

Grieskirchen Weather History for the Previous 24 Hours

Scroll right to see more
 ConditionsComfort  
Time TempWeatherWind HumidityBarometerVisibility
9:20 pm
Fri, Apr 28
37 °FLight rain. Passing clouds.9 mph93%29.98 "Hg4 mi
8:50 pm37 °FLight rain. Passing clouds.10 mph93%29.98 "HgN/A
8:20 pm37 °FLight rain. Passing clouds.13 mph93%29.95 "Hg5 mi
7:50 pm37 °FLight rain. Partly sunny.12 mph93%29.95 "HgN/A
7:20 pm37 °FLight rain. Partly sunny.12 mph87%29.95 "HgN/A
6:50 pm37 °FLight rain. Partly sunny.15 mph93%29.92 "HgN/A
6:20 pm37 °FLight rain. Partly sunny.15 mph93%29.92 "HgN/A
5:50 pm37 °FLight rain. Partly sunny.15 mph93%29.89 "HgN/A
5:20 pm37 °FLight rain. Partly sunny.15 mph87%29.89 "HgN/A
4:50 pm37 °FLight rain. Partly sunny.14 mph93%29.89 "HgN/A
4:20 pm37 °FPartly sunny.13 mph93%29.89 "HgN/A
3:50 pm37 °FLight rain. Partly sunny.13 mph93%29.86 "HgN/A
3:20 pm39 °FLight rain. Partly sunny.10 mph87%29.86 "Hg5 mi
2:50 pm39 °FLight rain. Partly sunny.8 mph87%29.86 "HgN/A
2:20 pm39 °FLight rain. Partly sunny.9 mph87%29.86 "HgN/A
1:50 pm37 °FLight rain. Partly sunny.7 mph93%29.83 "HgN/A
1:20 pm37 °FLight rain. Broken clouds.7 mph93%29.83 "HgN/A
12:50 pm37 °FLight rain. Broken clouds.7 mph93%29.83 "HgN/A
12:20 pm37 °FRain. Broken clouds.5 mph87%29.83 "Hg4 mi
11:50 am37 °FRain. Partly sunny.6 mph93%29.80 "HgN/A
11:20 am37 °FLight rain. Partly sunny.6 mph93%29.83 "HgN/A
10:50 am37 °FLight rain. Partly sunny.3 mph93%29.80 "HgN/A
10:20 am37 °FLight rain. Broken clouds.5 mph93%29.83 "Hg6 mi
9:50 am37 °FLight rain. Broken clouds.6 mph93%29.80 "Hg6 mi
9:20 am37 °FLight rain. Broken clouds.7 mph93%29.83 "Hg4 mi
8:50 am36 °FLight rain. Partly sunny.5 mph100%29.83 "Hg4 mi
8:20 am36 °FLight rain. Broken clouds.6 mph93%29.80 "Hg4 mi
7:50 am34 °FLight rain. Broken clouds.6 mph100%29.83 "Hg4 mi
7:20 am34 °FPartly sunny.5 mph93%29.83 "Hg4 mi
6:50 am34 °FLight rain. Partly sunny.2 mph93%29.83 "Hg3 mi
6:20 am32 °FLight rain. Partly sunny.5 mph100%29.83 "Hg3 mi
5:50 am32 °FLight rain. Broken clouds.2 mph100%29.80 "Hg4 mi
5:20 am32 °FLight snow. Partly cloudy.5 mph100%29.83 "Hg3 mi
4:50 am32 °FLight rain. Partly cloudy.3 mph100%29.80 "Hg4 mi
4:20 am32 °FLight rain. Partly cloudy.3 mph100%29.83 "Hg3 mi
3:20 am34 °FRain. Passing clouds.3 mph93%29.86 "Hg4 mi
2:50 am34 °FRain. Passing clouds.9 mph93%29.86 "Hg4 mi
2:20 am37 °FRain. Partly cloudy.6 mph93%29.83 "Hg4 mi
1:50 am39 °FRain. Passing clouds.7 mph87%29.86 "Hg6 mi
1:20 am39 °FLight rain. Partly cloudy.5 mph93%29.86 "HgN/A
12:50 am39 °FLight rain. Partly cloudy.3 mph93%29.86 "HgN/A
12:20 am39 °FLight rain. Passing clouds.5 mph93%29.86 "HgN/A
11:50 pm
Thu, Apr 27
39 °FLight rain. Partly cloudy.6 mph93%29.89 "HgN/A
11:20 pm39 °FLight rain. Passing clouds.6 mph93%29.89 "HgN/A
10:50 pm39 °FLight rain. Partly cloudy.3 mph93%29.89 "HgN/A
10:20 pm39 °FLight rain. Passing clouds.2 mph93%29.92 "HgN/A
Weather by CustomWeather, © 2017

See weather overviewHow to use our weather pages